When you browse on this site, cookies collect data to enhance your experience and personalize the content and advertising you see.
Visit our Privacy Policy to learn more. By continuing to use the site, you agree to this use of cookies and data.
  • In France
  • List of Countries
  • For 7 days
  • Water Temperature
  • Satellite Maps
  • Weather Map
  • Weather Widgets
  • user-avatar
    Login

    Hourly Weather Cachungo

    Today, 23 May, Thursday

    Time Temperature Precipitation Wind Pressure Humidity
    00:00 +29°C° 0 mm 2 mps 755 mmHg 47%
    01:00 +28°C° 0 mm 2 mps 755 mmHg 48%
    02:00 +28°C° 0 mm 2 mps 755 mmHg 49%
    03:00 +28°C° 0 mm 2 mps 755 mmHg 48%
    04:00 +27°C° 0 mm 2 mps 755 mmHg 48%
    05:00 +27°C° 0 mm 2 mps 755 mmHg 48%
    06:00 +28°C° 0 mm 2 mps 755 mmHg 42%
    07:00 +30°C° 0 mm 2 mps 756 mmHg 36%
    08:00 +32°C° 0 mm 2 mps 756 mmHg 30%
    09:00 +36°C° 0 mm 2 mps 756 mmHg 25%
    10:00 +39°C° 0 mm 2 mps 756 mmHg 20%
    11:00 +41°C° 0 mm 2 mps 756 mmHg 16%
    12:00 +42°C° 0 mm 2 mps 755 mmHg 15%
    13:00 +43°C° 0 mm 2 mps 755 mmHg 15%
    14:00 +45°C° 0 mm 2 mps 754 mmHg 15%
    15:00 +43°C° 0 mm 3 mps 754 mmHg 19%
    16:00 +42°C° 0 mm 4 mps 753 mmHg 23%
    17:00 +40°C° 0 mm 5 mps 753 mmHg 27%
    18:00 +37°C° 0 mm 5 mps 753 mmHg 32%
    19:00 +35°C° 0 mm 5 mps 754 mmHg 38%
    20:00 +33°C° 0 mm 5 mps 754 mmHg 43%
    21:00 +32°C° 0 mm 4 mps 755 mmHg 46%
    22:00 +30°C° 0 mm 4 mps 755 mmHg 48%
    23:00 +29°C° 0 mm 3 mps 756 mmHg 50%

    Tomorrow, 24 May, Friday

    Time Temperature Precipitation Wind Pressure Humidity
    00:00 +29°C° 0 mm 3 mps 755 mmHg 51%
    01:00 +28°C° 0 mm 3 mps 755 mmHg 53%
    02:00 +28°C° 0 mm 2 mps 755 mmHg 54%
    03:00 +27°C° 0 mm 2 mps 755 mmHg 56%
    04:00 +27°C° 0 mm 2 mps 755 mmHg 58%
    05:00 +26°C° 0 mm 2 mps 755 mmHg 60%
    06:00 +28°C° 0 mm 2 mps 756 mmHg 54%
    07:00 +29°C° 0 mm 2 mps 756 mmHg 48%
    08:00 +31°C° 0 mm 1 mps 757 mmHg 42%
    09:00 +34°C° 0 mm 1 mps 757 mmHg 35%
    10:00 +37°C° 0 mm 1 mps 757 mmHg 28%
    11:00 +41°C° 0 mm 1 mps 757 mmHg 21%
    12:00 +41°C° 0 mm 2 mps 756 mmHg 21%
    13:00 +42°C° 0 mm 2 mps 755 mmHg 20%
    14:00 +43°C° 0 mm 3 mps 754 mmHg 20%
    15:00 +41°C° 0 mm 4 mps 754 mmHg 27%
    16:00 +39°C° 0 mm 5 mps 753 mmHg 34%
    17:00 +35°C° 0 mm 6 mps 753 mmHg 41%
    18:00 +33°C° 0 mm 5 mps 754 mmHg 47%
    19:00 +32°C° 0 mm 5 mps 754 mmHg 53%
    20:00 +29°C° 0 mm 4 mps 755 mmHg 59%
    21:00 +28°C° 0 mm 4 mps 756 mmHg 61%
    22:00 +28°C° 0 mm 4 mps 756 mmHg 64%
    23:00 +27°C° 0 mm 3 mps 756 mmHg 66%

    Day after tomorrow, 25 May, Saturday

    Time Temperature Precipitation Wind Pressure Humidity
    00:00 +27°C° 0 mm 3 mps 756 mmHg 67%
    01:00 +27°C° 0 mm 2 mps 756 mmHg 69%
    02:00 +26°C° 0 mm 2 mps 756 mmHg 70%
    03:00 +26°C° 0 mm 2 mps 756 mmHg 71%
    04:00 +26°C° 0 mm 1 mps 756 mmHg 71%
    05:00 +26°C° 0 mm 1 mps 756 mmHg 72%
    06:00 +27°C° 0 mm 1 mps 757 mmHg 65%
    07:00 +28°C° 0 mm 1 mps 757 mmHg 58%
    08:00 +29°C° 0 mm 1 mps 757 mmHg 51%
    09:00 +32°C° 0 mm 1 mps 757 mmHg 43%
    10:00 +36°C° 0 mm 2 mps 757 mmHg 35%
    11:00 +38°C° 0 mm 2 mps 757 mmHg 26%
    12:00 +39°C° 0 mm 2 mps 756 mmHg 27%
    13:00 +39°C° 0 mm 3 mps 756 mmHg 27%
    14:00 +40°C° 0 mm 4 mps 755 mmHg 27%
    15:00 +38°C° 0 mm 4 mps 754 mmHg 32%
    16:00 +36°C° 0 mm 5 mps 754 mmHg 38%
    17:00 +34°C° 0 mm 5 mps 754 mmHg 43%
    18:00 +33°C° 0 mm 5 mps 755 mmHg 49%
    19:00 +30°C° 0 mm 4 mps 755 mmHg 54%
    20:00 +29°C° 0 mm 4 mps 756 mmHg 60%
    21:00 +28°C° 0 mm 3 mps 756 mmHg 62%
    22:00 +28°C° 0 mm 3 mps 757 mmHg 65%
    23:00 +27°C° 0 mm 3 mps 757 mmHg 67%

    26 May, Sunday

    Time Temperature Precipitation Wind Pressure Humidity
    00:00 +27°C° 0 mm 2 mps 757 mmHg 69%
    01:00 +27°C° 0 mm 2 mps 756 mmHg 71%
    02:00 +26°C° 0 mm 2 mps 756 mmHg 73%
    03:00 +26°C° 0 mm 1 mps 756 mmHg 74%
    04:00 +26°C° 0 mm 1 mps 756 mmHg 75%
    05:00 +26°C° 0 mm 1 mps 756 mmHg 76%
    06:00 +27°C° 0 mm 1 mps 757 mmHg 68%
    07:00 +29°C° 0 mm 1 mps 757 mmHg 60%
    08:00 +30°C° 0 mm 1 mps 758 mmHg 52%
    09:00 +33°C° 0 mm 1 mps 758 mmHg 44%
    10:00 +35°C° 0 mm 1 mps 758 mmHg 36%
    11:00 +39°C° 0 mm 1 mps 758 mmHg 28%
    12:00 +39°C° 0 mm 2 mps 757 mmHg 29%
    13:00 +39°C° 0 mm 3 mps 756 mmHg 30%
    14:00 +40°C° 0 mm 4 mps 755 mmHg 31%
    15:00 +37°C° 0 mm 4 mps 755 mmHg 36%
    16:00 +36°C° 0 mm 5 mps 755 mmHg 41%
    17:00 +34°C° 0 mm 5 mps 755 mmHg 46%
    18:00 +33°C° 0 mm 5 mps 755 mmHg 51%
    19:00 +30°C° 0 mm 4 mps 756 mmHg 56%
    20:00 +29°C° 0 mm 4 mps 757 mmHg 61%
    21:00 +29°C° 0 mm 3 mps 757 mmHg 62%
    22:00 +28°C° 0 mm 3 mps 757 mmHg 63%
    23:00 +28°C° 0 mm 3 mps 757 mmHg 64%

    27 May, Monday

    Time Temperature Precipitation Wind Pressure Humidity
    00:00 +28°C° 0 mm 3 mps 757 mmHg 64%
    01:00 +28°C° 0 mm 2 mps 757 mmHg 64%
    02:00 +27°C° 0 mm 2 mps 756 mmHg 64%
    03:00 +27°C° 0 mm 2 mps 756 mmHg 64%
    04:00 +27°C° 0 mm 2 mps 756 mmHg 65%
    05:00 +27°C° 0 mm 2 mps 756 mmHg 65%
    06:00 +28°C° 0 mm 1 mps 757 mmHg 58%
    07:00 +29°C° 0 mm 1 mps 757 mmHg 52%
    08:00 +31°C° 0 mm 1 mps 757 mmHg 46%
    09:00 +33°C° 0 mm 1 mps 757 mmHg 40%
    10:00 +37°C° 0 mm 2 mps 757 mmHg 35%
    11:00 +39°C° 0 mm 2 mps 757 mmHg 30%
    12:00 +39°C° 0 mm 2 mps 756 mmHg 30%
    13:00 +39°C° 0 mm 3 mps 755 mmHg 30%
    14:00 +41°C° 0 mm 4 mps 755 mmHg 31%
    15:00 +39°C° 0 mm 5 mps 755 mmHg 34%
    16:00 +37°C° 0 mm 5 mps 755 mmHg 36%
    17:00 +36°C° 0 mm 6 mps 754 mmHg 39%
    18:00 +34°C° 0 mm 5 mps 755 mmHg 42%
    19:00 +33°C° 0 mm 5 mps 756 mmHg 44%
    20:00 +32°C° 0 mm 4 mps 756 mmHg 47%
    21:00 +30°C° 0 mm 4 mps 756 mmHg 49%
    22:00 +29°C° 0 mm 3 mps 757 mmHg 51%
    23:00 +29°C° 0 mm 3 mps 757 mmHg 52%

    28 May, Tuesday

    Time Temperature Precipitation Wind Pressure Humidity
    00:00 +29°C° 0 mm 3 mps 756 mmHg 54%
    01:00 +28°C° 0 mm 2 mps 756 mmHg 55%
    02:00 +28°C° 0 mm 2 mps 756 mmHg 56%
    03:00 +27°C° 0 mm 2 mps 756 mmHg 57%
    04:00 +27°C° 0 mm 2 mps 756 mmHg 58%
    05:00 +27°C° 0 mm 1 mps 756 mmHg 59%
    06:00 +28°C° 0 mm 2 mps 757 mmHg 53%
    07:00 +30°C° 0 mm 2 mps 757 mmHg 47%
    08:00 +31°C° 0 mm 2 mps 757 mmHg 40%
    09:00 +35°C° 0 mm 2 mps 757 mmHg 33%
    10:00 +38°C° 0 mm 2 mps 757 mmHg 27%
    11:00 +40°C° 0 mm 2 mps 757 mmHg 20%
    12:00 +41°C° 0 mm 2 mps 756 mmHg 20%
    13:00 +42°C° 0 mm 3 mps 755 mmHg 21%
    14:00 +42°C° 0 mm 4 mps 754 mmHg 21%
    15:00 +41°C° 0 mm 5 mps 754 mmHg 24%
    16:00 +40°C° 0 mm 5 mps 754 mmHg 26%
    17:00 +38°C° 0 mm 6 mps 754 mmHg 29%
    18:00 +35°C° 0 mm 6 mps 754 mmHg 34%
    19:00 +33°C° 0 mm 5 mps 755 mmHg 39%
    20:00 +30°C° 0 mm 5 mps 756 mmHg 44%
    21:00 +30°C° 0 mm 5 mps 756 mmHg 46%
    22:00 +29°C° 0 mm 4 mps 756 mmHg 48%
    23:00 +29°C° 0 mm 4 mps 756 mmHg 50%
    Show more